Location: Unspecified
(0.0000°N, 0.0000°E)
Time: 17:16:34
(UTC+00:00)

Vanguard 2 Rocket - Pass Details

Date: 26 January 2020
Orbit: 554 x 3327 km, 32.9° (Epoch: 20 February)

Event Time Altitude Azimuth Distance (km) Brightness Sun altitude
Rises 11:02:10 0° 316° (NW) 4,713 10.3 64.5°
Reaches altitude 10° 11:04:51 10° 321° (NW) 4,032 10.1 64.9°
Maximum altitude 11:16:22 60° 39° (NE) 2,776 10.2 66.7°
Drops below altitude 10° 11:34:51 10° 114° (ESE) 6,191 11.5 69.1°
Sets 11:40:06 0° 117° (ESE) 7,308 11.7 69.6°
